sat.trackr.live / text

‹ back to catalog

STARLINK-11710 [DTC]

NORAD 64244 · 2025-119M

PAYLOAD ACTIVE UNKNOWN

§ Identity

Operator
Country
US
Launch date
2025-06-03
Launch site
AFETR
Launch vehicle
Mass (kg)
RCS (m²)

Purposes: comms

External: N2YO · Heavens-Above · Gunter

§ Orbital elements

Epoch: 2026-05-25T04:31:23.662848Z

Period
91.67 min
Inclination
43.0002°
Eccentricity
0.0001371
Mean motion
15.70858802 rev/d
Perigee alt
355.5 km
Apogee alt
357.4 km
Semi-major
6,734.6 km
B*
2.1039e-3
RAAN
108.2114°
Arg perigee
256.1066°
Mean anomaly
103.9649°
Rev number
5,727

§ Raw data

STARLINK-11710 [DTC]1 64244U 25119M   26145.18846832  .00278988  00000+0  21039-2 0  99942 64244  43.0002 108.2114 0001371 256.1066 103.9649 15.70858802 57273

JSON: /api/v1/satellites/64244 · /tle

For live sub-satellite position, see the globe view (requires WebGL).

§ Visibility from observer

Set your observer location to see the next 7 days of passes ≥ 10°. The values pass through the URL so the page stays shareable.

No JS? Fill the form by hand. The geolocation button needs JavaScript.